Regional Weather Roundup
Issued by NWS

Home | Current Version | Previous Version | Graphics & Text | Print | Product List | Glossary On
Versions: 1 2 3 4 5 6 7 8 9 10 11 12 13 14 15 16 17 18 19 20 21 22 23 24 25 26 27 28 29 30 31 32 33 34 35 36 37 38 39 40 41 42 43 44 45 46 47 48 49 50
000
ASUS45 KSLC 251110
RWRUT

UTAH REGIONAL WEATHER ROUNDUP
NATIONAL WEATHER SERVICE SALT LAKE CITY UT
500 AM MDT SAT APR 25 2015

UTZ001>011-023>025-251200-

NORTHERN UTAH

CITY           SKY/WX    TMP DP  RH WIND       PRES   REMARKS
BRIGHAM CITY   MOCLDY    43  40  89 CALM      29.83S
HILL AFB       PTCLDY    42  40  94 S10       29.83R
LOGAN          CLOUDY    41  37  86 CALM      29.81S
OGDEN          PTCLDY    43  38  82 S7        29.82R
PROVO AIRPORT  PTCLDY    43  36  75 N5        29.83F
SALT LAKE CITY MOCLDY    44  39  82 CALM      29.83S
VERNAL         CLOUDY    45  35  68 SW6       29.77R
WENDOVER       CLOUDY    45  34  65 S12       29.81S
HEBER CITY     PTCLDY    34  32  93 E3        29.83S
WEST JORDAN    CLEAR     41  41 100 CALM      29.85R

$$

UTZ012>022-026-027-251200-

SOUTHERN/CENTRAL UTAH

CITY           SKY/WX    TMP DP  RH WIND       PRES   REMARKS
BLANDING       CLOUDY    46  37  70 S13       29.94S
BRYCE CANYON   MOCLDY    33  31  92 CALM      29.91R
CEDAR CITY     LGT RAIN  42  38  85 SW5       29.85S
DELTA          CLOUDY    45  42  90 S7        29.82F
HANKSVILLE     CLOUDY    46  41  81 S5        29.83F
MILFORD        CLOUDY    44  30  57 S10       29.82S
MOAB/CYNLANDS  LGT RAIN  49  44  83 SW16      29.80R
PRICE          CLOUDY    43  31  62 W7        29.81S
ST GEORGE      PTSUNNY   52  46  82 W3        29.84F
KANAB          CLOUDY    46  43  87 CALM      29.90S

$$

REGIONAL REPORTS     COLORADO/ARIZONA

CITY           SKY/WX    TMP DP  RH WIND       PRES   REMARKS
CRAIG, CO      CLOUDY    47  32  56 W13       29.80R
GRAND JUNCTION CLOUDY    49  33  54 E5        29.79R
RIFLE          CLOUDY    40  34  79 E7        29.82R
MONTROSE       CLOUDY    49  33  54 S9        29.86S
CORTEZ         CLOUDY    47  37  68 SW9       29.92R
PAGE, AZ       LGT RAIN  56  40  55 NW10G18   29.85R
GRAND CANYON   CLOUDY    42  36  79 S8        29.95F
KINGMAN        CLEAR     50  38  63 S9        29.85S
FLAGSTAFF      CLOUDY    40  39  97 SW13      29.97S WCI  32

$$

REGIONAL REPORTS    NEVADA/IDAHO/WYOMING

CITY           SKY/WX    TMP DP  RH WIND       PRES   REMARKS
LAS VEGAS, NV  MOCLDY    60  36  40 S10       29.73S
ELY            MOCLDY    34  33  96 S10       29.83F WCI  26
ELKO           PTCLDY    37  33  85 CALM      29.80F
POCATELLO, ID  PTCLDY    41  32  70 SW17      29.80R
BURLEY         MOCLDY    40  31  70 SW12      29.78R WCI  33
EVANSTON, WY   MOCLDY    32  32 100 S14       29.82S WCI  22
ROCK SPRINGS   CLOUDY    36  33  89 W21       29.78R WCI  25

$$


USA.gov is the U.S. government's official web portal to all federal, state and local government web resources and services.